EZY2RI EGNS-EGSS

Flight info

Callsign EZY2RI
Flight time N/A
Altitude 33000
Route DCT TIMIS Q39 NOMSU UQ4 LISTO LISTO1L
Aircraft A320/M-SDE3FGHIRWY/LB1

Departure

Time N/A
Airport Isle of Man Airport (EGNS)

Arrival

Time 2026-04-30 17:57
Airport London Stansted Airport (EGSS)
Time Latitude Longitude Altitude Speed Heading
2026-04-30 17:39 52.16313 -1.20963 17961 ft 387 kts 149°
2026-04-30 17:41 52.00141 -1.00447 14837 ft 372 kts 109°
2026-04-30 17:42 51.99669 -0.92069 14272 ft 375 kts 92°
2026-04-30 17:42 51.99672 -0.79444 13362 ft 371 kts 93°
2026-04-30 17:43 51.99650 -0.71107 12743 ft 368 kts 93°
2026-04-30 17:44 51.99631 -0.59132 11962 ft 335 kts 93°
2026-04-30 17:44 51.99605 -0.48413 11491 ft 298 kts 94°
2026-04-30 17:46 51.99501 -0.32475 10091 ft 277 kts 95°
2026-04-30 17:47 51.99338 -0.20157 8569 ft 269 kts 95°
2026-04-30 17:48 51.99175 -0.08148 7012 ft 263 kts 95°
2026-04-30 17:48 51.96615 -0.01205 5819 ft 249 kts 146°
2026-04-30 17:49 51.90888 0.05068 5084 ft 246 kts 150°
2026-04-30 17:50 51.84348 0.03422 3384 ft 247 kts 196°
2026-04-30 17:51 51.79862 0.00689 3013 ft 213 kts 196°
2026-04-30 17:52 51.76719 0.02586 2625 ft 178 kts 97°
2026-04-30 17:53 51.79976 0.10729 2393 ft 159 kts 51°
2026-04-30 17:54 51.82804 0.14946 1711 ft 136 kts 53°
2026-04-30 17:55 51.85500 0.18981 995 ft 130 kts 49°
2026-04-30 17:56 51.88088 0.22856 337 ft 114 kts 41°
2026-04-30 17:57 51.88861 0.24135 351 ft 22 kts 68°
2026-04-30 17:58 51.88918 0.24419 349 ft 0 kts 70°
2026-04-30 17:59 51.88921 0.24437 346 ft 5 kts 76°
2026-04-30 18:00 51.89050 0.24815 352 ft 5 kts 145°
2026-04-30 18:00 51.89081 0.25129 349 ft 19 kts 42°
2026-04-30 18:01 51.89117 0.25382 348 ft 18 kts 134°
2026-04-30 18:02 51.88958 0.25664 347 ft 2 kts 103°
2026-04-30 18:02 51.88976 0.25699 354 ft 1 kts 45°
2026-04-30 18:03 51.89006 0.25745 352 ft 0 kts 43°